GW0977 Weather Reports


time (UTC)temp
C
wind
direction
speed
KPH
gust
KPH
rain 1hr
cm
rain 24hr
cm
rain mn
cm
humidity
%
barometer
mb
20260507234555 20 220 11.3 35.4 0.00 0.00 0.00 41 1008.9
20260507233058 20 154 11.3 27.4 0.00 0.00 0.00 41 1008.9
20260507231557 20 250 12.9 27.4 0.00 0.00 0.00 39 1009.0
20260507230110 20 215 12.9 29.0 0.00 0.00 0.00 39 1009.2
20260507224556 21 238 14.5 30.6 0.00 0.00 0.00 39 1009.4
20260507223057 20 148 12.9 30.6 0.00 0.00 0.00 40 1009.5
20260507221600 21 255 9.7 27.4 0.00 0.00 0.00 40 1009.7
20260507220059 21 244 9.7 27.4 0.00 0.00 0.00 39 1009.9
20260507214606 21 227 9.7 29.0 0.00 0.00 0.00 38 1010.0
20260507213107 20 194 11.3 30.6 0.00 0.00 0.00 40 1010.5
20260507211600 20 241 12.9 30.6 0.00 0.00 0.00 38 1010.6
20260507210100 18 175 16.1 32.2 0.00 0.00 0.00 40 1010.8
20260507204603 19 234 12.9 30.6 0.00 0.00 0.00 40 1010.9
20260507203100 20 216 9.7 32.2 0.00 0.00 0.00 40 1011.0
20260507201604 19 230 20.9 41.8 0.00 0.00 0.00 38 1011.1
20260507200100 19 239 16.1 37.0 0.00 0.00 0.00 40 1011.3
20260507194603 19 240 16.1 49.9 0.00 0.00 0.00 42 1011.5
20260507193100 19 215 14.5 38.6 0.00 0.00 0.00 42 1011.7
20260507191617 19 228 14.5 35.4 0.00 0.00 0.00 43 1011.8
20260507190101 19 169 14.5 37.0 0.00 0.00 0.00 43 1012.0
20260507184606 18 187 14.5 38.6 0.00 0.00 0.00 43 1012.1
20260507183104 18 215 16.1 37.0 0.00 0.00 0.00 44 1012.3
20260507181556 18 267 16.1 38.6 0.00 0.00 0.00 44 1012.5
20260507174559 17 252 14.5 32.2 0.00 0.00 0.00 45 1012.9
20260507173058 17 232 16.1 33.8 0.00 0.00 0.00 45 1013.2
20260507171557 17 223 12.9 33.8 0.00 0.00 0.00 47 1013.4
20260507170059 17 214 16.1 40.2 0.00 0.00 0.00 47 1013.8
20260507164636 16 236 17.7 30.6 0.00 0.00 0.00 47 1014.0
20260507163100 16 248 12.9 32.2 0.00 0.00 0.00 49 1014.0
20260507161608 16 227 12.9 27.4 0.00 0.00 0.00 51 1014.1
20260507160059 16 277 12.9 27.4 0.00 0.00 0.00 52 1014.2
20260507154557 15 242 17.7 35.4 0.00 0.00 0.00 52 1014.5
20260507153111 15 236 11.3 35.4 0.00 0.00 0.00 55 1014.6
20260507151609 14 276 16.1 35.4 0.00 0.00 0.00 56 1014.6
20260507150108 13 253 16.1 32.2 0.00 0.00 0.00 57 1014.6
20260507144605 13 279 12.9 25.7 0.00 0.00 0.00 61 1014.8
20260507143111 13 265 8.0 22.5 0.00 0.00 0.00 62 1014.9
20260507141624 12 244 8.0 27.4 0.00 0.00 0.00 67 1014.9
20260507140104 11 284 9.7 24.1 0.00 0.00 0.00 69 1015.0
20260507134617 10 209 9.7 17.7 0.00 0.00 0.00 71 1015.1
20260507133109 9 205 8.0 19.3 0.00 0.00 0.00 73 1015.3
20260507131613 8 206 6.4 17.7 0.00 0.00 0.00 74 1015.2
20260507130101 8 176 3.2 14.5 0.00 0.00 0.00 75 1015.3
20260507124559 7 192 6.4 14.5 0.00 0.00 0.00 77 1015.1
20260507123126 6 159 4.8 9.7 0.00 0.00 0.00 77 1015.2
20260507121557 5 155 3.2 9.7 0.00 0.00 0.00 77 1015.2
20260507120057 5 0 3.2 8.0 0.00 0.00 0.00 78 1015.2
20260507114559 4 360 4.8 8.0 0.00 0.00 0.00 79 1015.1
20260507113058 3 360 1.6 6.4 0.00 0.00 0.00 79 1015.2
20260507111557 3 360 1.6 8.0 0.00 0.00 0.00 78 1015.1
20260507110057 4 360 1.6 6.4 0.00 0.00 0.00 77 1015.1
20260507104601 4 360 3.2 8.0 0.00 0.00 0.00 76 1015.0
20260507103058 4 360 3.2 8.0 0.00 0.00 0.00 76 1015.0
20260507101557 4 360 3.2 8.0 0.00 0.00 0.00 76 1015.1
20260507100100 4 360 4.8 8.0 0.00 0.00 0.00 75 1015.1
20260507094554 5 360 4.8 12.9 0.00 0.00 0.00 73 1015.3
20260507093058 5 360 4.8 16.1 0.00 0.00 0.00 72 1015.4
20260507091557 5 360 6.4 14.5 0.00 0.00 0.00 71 1015.4
20260507084559 5 360 4.8 9.7 0.00 0.00 0.00 68 1015.6
20260507083059 5 360 3.2 9.7 0.00 0.00 0.00 67 1015.7
20260507081602 5 360 3.2 8.0 0.00 0.00 0.00 68 1015.9
20260507080120 6 360 3.2 9.7 0.00 0.00 0.00 66 1015.8
20260507074600 6 360 1.6 8.0 0.00 0.00 0.00 64 1015.9
20260507073059 6 360 1.6 8.0 0.00 0.00 0.00 63 1016.0
20260507071604 6 360 1.6 6.4 0.00 0.00 0.00 63 1016.2
20260507070105 6 360 0.0 6.4 0.00 0.00 0.00 61 1016.4
20260507064634 7 360 1.6 4.8 0.00 0.00 0.00 59 1016.6
20260507063122 7 360 3.2 6.4 0.00 0.00 0.00 58 1016.7
20260507061558 7 360 1.6 4.8 0.00 0.00 0.00 57 1016.8
20260507060113 7 0 1.6 4.8 0.00 0.00 0.00 58 1017.0
20260507054607 7 360 1.6 6.4 0.00 0.00 0.00 55 1017.1
20260507053110 8 360 1.6 6.4 0.00 0.00 0.00 55 1017.2
20260507051608 8 360 1.6 6.4 0.00 0.00 0.00 54 1017.1
20260507044601 8 360 3.2 8.0 0.00 0.00 0.00 50 1017.1
20260507043058 8 360 1.6 6.4 0.00 0.00 0.00 51 1017.2
20260507041559 9 360 3.2 8.0 0.00 0.00 0.00 50 1017.3
20260507040058 10 360 1.6 4.8 0.00 0.00 0.00 45 1017.2
20260507034600 8 0 0.0 3.2 0.00 0.00 0.00 50 1017.4
20260507033058 8 0 0.0 0.0 0.00 0.00 0.00 51 1017.3
20260507031559 8 0 0.0 1.6 0.00 0.00 0.00 51 1017.2
20260507030100 9 0 0.0 3.2 0.00 0.00 0.00 51 1017.3
20260507024558 10 360 0.0 1.6 0.00 0.00 0.00 49 1017.3
20260507023100 10 0 0.0 1.6 0.00 0.00 0.00 48 1017.2
20260507021557 10 0 0.0 3.2 0.00 0.00 0.00 48 1017.0
20260507020119 11 0 0.0 1.6 0.00 0.00 0.00 44 1016.9
20260507014602 11 0 0.0 0.0 0.00 0.00 0.00 43 1016.8
20260507013102 12 0 0.0 0.0 0.00 0.00 0.00 39 1016.8
20260507011600 13 0 0.0 0.0 0.00 0.00 0.00 37 1016.7
20260507010111 13 0 0.0 3.2 0.00 0.00 0.00 35 1016.6
20260507004600 13 23 0.0 8.0 0.00 0.00 0.00 34 1016.7
20260507003059 14 337 1.6 14.5 0.00 0.00 0.00 33 1016.7
20260507001605 14 338 1.6 19.3 0.00 0.00 0.00 33 1016.8
20260507000058 14 322 8.0 19.3 0.00 0.00 0.00 32 1016.9